TimeCDT,TemperatureF,Dew PointF,Humidity,Sea Level PressureIn,VisibilityMPH,Wind Direction,Wind SpeedMPH,Gust SpeedMPH,PrecipitationIn,Events,Conditions,WindDirDegrees,DateUTC
12:15 AM,53.1,36.5,53,30.29,10.0,ESE,6.9,-,N/A,,Clear,120,2013-10-14 05:15:00
12:35 AM,53.2,37.4,55,30.29,10.0,ESE,6.9,-,N/A,,Scattered Clouds,120,2013-10-14 05:35:00
12:55 AM,52.9,37.4,56,30.29,10.0,ESE,6.9,-,N/A,,Mostly Cloudy,120,2013-10-14 05:55:00
1:15 AM,52.0,37.4,58,30.29,10.0,ESE,6.9,-,N/A,,Scattered Clouds,110,2013-10-14 06:15:00
1:35 AM,51.3,37.0,58,30.28,10.0,ESE,5.8,-,N/A,,Clear,110,2013-10-14 06:35:00
1:55 AM,48.7,36.9,64,30.28,10.0,East,6.9,-,N/A,,Clear,100,2013-10-14 06:55:00
2:15 AM,48.7,37.2,64,30.28,10.0,East,8.1,-,N/A,,Clear,100,2013-10-14 07:15:00
2:35 AM,48.7,37.4,65,30.27,10.0,East,8.1,-,N/A,,Scattered Clouds,90,2013-10-14 07:35:00
2:55 AM,49.3,37.4,64,30.26,10.0,ESE,9.2,-,N/A,,Scattered Clouds,110,2013-10-14 07:55:00
3:15 AM,50.5,36.5,59,30.24,10.0,ESE,11.5,-,N/A,,Scattered Clouds,110,2013-10-14 08:15:00
3:35 AM,50.7,36.0,57,30.23,10.0,East,10.4,-,N/A,,Clear,100,2013-10-14 08:35:00
3:55 AM,50.5,35.2,56,30.22,10.0,ESE,9.2,-,N/A,,Scattered Clouds,120,2013-10-14 08:55:00
4:15 AM,51.8,34.9,53,30.21,10.0,ESE,10.4,18.4,N/A,,Mostly Cloudy,120,2013-10-14 09:15:00
4:35 AM,51.4,34.7,53,30.21,10.0,SE,10.4,16.1,N/A,,Mostly Cloudy,130,2013-10-14 09:35:00
4:55 AM,51.8,34.2,51,30.19,10.0,ESE,13.8,-,N/A,,Mostly Cloudy,120,2013-10-14 09:55:00
5:15 AM,51.4,33.8,51,30.18,10.0,SE,11.5,21.9,N/A,Thunderstorm,Overcast,130,2013-10-14 10:15:00
5:35 AM,51.6,33.4,50,30.18,10.0,ESE,10.4,16.1,N/A,,Mostly Cloudy,120,2013-10-14 10:35:00
5:55 AM,51.8,32.9,49,30.17,10.0,ESE,10.4,21.9,N/A,,Mostly Cloudy,120,2013-10-14 10:55:00
6:15 AM,52.5,33.1,48,30.17,10.0,SE,10.4,18.4,N/A,,Scattered Clouds,140,2013-10-14 11:15:00
6:35 AM,52.7,33.1,47,30.17,10.0,SE,11.5,-,N/A,,Mostly Cloudy,140,2013-10-14 11:35:00
6:55 AM,53.1,33.3,47,30.17,10.0,SE,11.5,17.3,N/A,,Overcast,130,2013-10-14 11:55:00
7:15 AM,52.9,33.8,48,30.17,10.0,ESE,10.4,17.3,N/A,,Overcast,120,2013-10-14 12:15:00
7:35 AM,52.9,35.4,52,30.16,10.0,ESE,10.4,-,N/A,Rain-Thunderstorm,Light Thunderstorms and Rain,120,2013-10-14 12:35:00
7:55 AM,53.4,34.5,49,30.15,10.0,SE,13.8,20.7,N/A,Thunderstorm,Overcast,130,2013-10-14 12:55:00
8:15 AM,54.0,33.8,46,30.15,10.0,SE,13.8,23.0,N/A,Rain,Light Rain,130,2013-10-14 13:15:00
8:35 AM,54.3,33.6,46,30.16,10.0,SE,13.8,18.4,N/A,,Overcast,140,2013-10-14 13:35:00
8:55 AM,52.2,37.4,57,30.14,10.0,ESE,12.7,-,N/A,Rain,Light Rain,120,2013-10-14 13:55:00
9:15 AM,53.8,35.6,50,30.13,10.0,ESE,13.8,19.6,N/A,,Overcast,120,2013-10-14 14:15:00
9:35 AM,54.9,35.6,48,30.11,10.0,SE,16.1,23.0,N/A,Thunderstorm,Overcast,130,2013-10-14 14:35:00
9:55 AM,55.8,34.9,45,30.11,10.0,SE,13.8,23.0,N/A,,Mostly Cloudy,130,2013-10-14 14:55:00
10:15 AM,57.6,35.4,43,30.10,10.0,SE,15.0,24.2,N/A,,Mostly Cloudy,130,2013-10-14 15:15:00
10:35 AM,57.6,35.2,43,30.11,10.0,SE,13.8,19.6,N/A,,Overcast,140,2013-10-14 15:35:00
10:55 AM,57.2,35.2,44,30.10,10.0,SE,16.1,23.0,N/A,,Overcast,140,2013-10-14 15:55:00
11:15 AM,57.0,34.9,43,30.10,10.0,SE,19.6,25.3,N/A,,Overcast,140,2013-10-14 16:15:00
11:35 AM,52.0,42.1,69,30.09,7.0,SE,15.0,24.2,0.02,Rain,Rain,140,2013-10-14 16:35:00
11:55 AM,50.4,44.1,79,30.08,7.0,SE,10.4,21.9,0.05,Rain,Rain,140,2013-10-14 16:55:00
12:15 PM,50.0,45.0,83,30.07,7.0,ESE,10.4,18.4,0.01,Rain,Light Rain,120,2013-10-14 17:15:00
12:35 PM,51.1,45.7,82,30.04,10.0,ESE,15.0,-,0.01,,Overcast,110,2013-10-14 17:35:00
12:55 PM,50.9,46.6,85,30.03,7.0,ESE,11.5,16.1,0.03,Rain,Light Rain,110,2013-10-14 17:55:00
1:15 PM,51.3,46.8,85,30.00,10.0,ESE,12.7,18.4,N/A,Rain,Light Rain,110,2013-10-14 18:15:00
1:35 PM,53.6,46.8,78,29.98,10.0,ESE,15.0,-,N/A,,Overcast,110,2013-10-14 18:35:00
1:55 PM,54.9,47.1,75,29.96,10.0,ESE,12.7,-,N/A,,Mostly Cloudy,110,2013-10-14 18:55:00
2:15 PM,55.6,46.4,71,29.94,10.0,ESE,11.5,-,N/A,,Mostly Cloudy,110,2013-10-14 19:15:00
2:35 PM,57.4,47.1,69,29.92,10.0,ESE,10.4,-,N/A,,Mostly Cloudy,110,2013-10-14 19:35:00
2:55 PM,61.2,48.9,64,29.90,10.0,ESE,12.7,-,N/A,,Overcast,120,2013-10-14 19:55:00
3:15 PM,63.7,47.3,55,29.90,10.0,SE,18.4,25.3,N/A,,Overcast,140,2013-10-14 20:15:00
3:35 PM,60.4,51.3,72,29.91,7.0,SSE,15.0,24.2,N/A,Rain,Light Rain,150,2013-10-14 20:35:00
3:55 PM,57.6,52.9,84,29.88,5.0,SE,13.8,19.6,0.07,Rain,Light Rain,140,2013-10-14 20:55:00
4:15 PM,58.5,53.6,84,29.87,10.0,SE,16.1,21.9,N/A,,Overcast,140,2013-10-14 21:15:00
4:35 PM,59.0,54.5,85,29.86,5.0,SE,15.0,24.2,0.01,Rain,Light Rain,140,2013-10-14 21:35:00
4:55 PM,58.1,55.4,91,29.85,5.0,SE,19.6,26.5,0.04,Rain,Light Rain,140,2013-10-14 21:55:00
5:15 PM,57.7,55.6,92,29.84,7.0,SE,20.7,28.8,N/A,Rain,Light Rain,140,2013-10-14 22:15:00
5:35 PM,57.6,55.6,93,29.83,4.0,SE,18.4,29.9,0.01,Rain,Light Rain,130,2013-10-14 22:35:00
5:55 PM,57.4,55.8,94,29.82,2.5,SE,16.1,26.5,0.01,Rain-Thunderstorm,Rain,130,2013-10-14 22:55:00
6:15 PM,57.7,56.3,95,29.81,7.0,SE,18.4,28.8,N/A,Thunderstorm,Overcast,130,2013-10-14 23:15:00
6:35 PM,57.9,56.3,94,29.79,7.0,SE,16.1,29.9,N/A,Thunderstorm,Overcast,130,2013-10-14 23:35:00
6:55 PM,58.1,56.7,95,29.79,3.0,SE,18.4,25.3,N/A,Rain-Thunderstorm,Light Thunderstorms and Rain,140,2013-10-14 23:55:00
7:15 PM,58.3,57.2,96,29.78,3.0,SE,20.7,31.1,0.01,Thunderstorm,Unknown,140,2013-10-15 00:15:00
7:35 PM,59.0,57.7,96,29.78,7.0,SSE,10.4,26.5,0.01,Rain-Thunderstorm,Light Thunderstorms and Rain,160,2013-10-15 00:35:00
7:55 PM,59.0,57.7,96,29.76,10.0,SSE,18.4,28.8,0.03,Thunderstorm,Thunderstorm,150,2013-10-15 00:55:00
8:15 PM,59.2,58.1,96,29.81,4.0,South,20.7,27.6,0.12,Rain-Thunderstorm,Heavy Thunderstorms and Rain,170,2013-10-15 01:15:00
8:35 PM,59.0,57.6,95,29.78,2.5,SSE,17.3,31.1,0.46,Rain-Thunderstorm,Thunderstorms and Rain,160,2013-10-15 01:35:00
8:55 PM,59.0,57.9,96,29.79,4.0,South,12.7,24.2,0.02,Rain-Thunderstorm,Thunderstorms and Rain,180,2013-10-15 01:55:00
9:15 PM,59.4,58.5,97,29.81,4.0,South,13.8,17.3,0.10,Rain-Thunderstorm,Thunderstorms and Rain,190,2013-10-15 02:15:00
9:35 PM,59.9,58.8,96,29.80,4.0,SSE,17.3,21.9,0.20,Rain,Heavy Rain,160,2013-10-15 02:35:00
9:55 PM,59.9,59.0,97,29.78,5.0,SSE,15.0,20.7,0.26,Rain,Rain,150,2013-10-15 02:55:00
10:15 PM,59.9,59.0,97,29.76,10.0,SE,15.0,18.4,0.01,Rain,Light Rain,140,2013-10-15 03:15:00
10:35 PM,59.9,59.0,97,29.77,10.0,SSE,13.8,17.3,0.01,,Overcast,150,2013-10-15 03:35:00
10:55 PM,59.9,59.0,97,29.79,10.0,South,13.8,-,0.01,,Overcast,170,2013-10-15 03:55:00
11:15 PM,59.9,59.0,97,29.79,10.0,South,15.0,20.7,N/A,,Overcast,190,2013-10-15 04:15:00
11:35 PM,59.9,57.4,91,29.79,10.0,SSW,17.3,23.0,N/A,,Overcast,210,2013-10-15 04:35:00
11:55 PM,59.5,56.5,90,29.81,10.0,SW,13.8,24.2,N/A,,Overcast,220,2013-10-15 04:55:00